Weather History for Pompano Beach, FL

Change the Weather History Date:

Saturday, May 26, 2012

  Actual Average Record
Temperature  
Mean Temperature 78 °F -  
Max Temperature 84 °F 87 °F 93 °F (1972)
Min Temperature 73 °F 70 °F 60 °F (1977)
Cooling Degree Days 14    
Growing Degree Days 28 (Base 50)    
Moisture  
Dew Point 73 °F    
Average Humidity 82    
Maximum Humidity 97    
Minimum Humidity 63    
Precipitation  
Precipitation 0.00 in - - ()
Sea Level Pressure  
Sea Level Pressure 30.01 in    
Wind  
Wind Speed 4 mph (NE)    
Max Wind Speed 13 mph    
Max Gust Speed -    
Visibility 10 miles    
Events      
Averages and records for this station are not official NWS values.
T = Trace of Precipitation, MM = Missing Value Source: NWS Daily Summary

Daily Weather History Graph

Daily Weather History Graph

Search for Another Location

Airport:

Trip Planner

Search our weather history database for the weather conditions in past years. The results will help you decide how hot, cold, wet, or windy it might be!

Date:

Astronomy

May. 26, 2012 Rise Set
Actual Time 6:29 AM EDT 8:06 PM EDT
Civil Twilight 6:03 AM EDT 8:31 PM EDT
Nautical Twilight 5:33 AM EDT 9:02 PM EDT
Astronomical Twilight 5:00 AM EDT 9:34 PM EDT
Moon 11:16 AM EDT (5/26) No Moon Set
Length of Visible Light 14h 27m
Length of Day
13h 36m
Waxing Crescent, 28% of the Moon is Illuminated
May 26
Waxing Crescent
May 28
First Quarter
Jun 4
Full
Jun 11
Last Quarter
Jun 19
New

Hourly Weather History & Observations

Time (EDT) Temp. Heat Index Dew Point Humidity Pressure Visibility Wind Dir Wind Speed Gust Speed Precip Events Conditions
12:53 AM 77.0 °F - 73.0 °F 88% 30.02 in 10.0 mi East 3.5 mph - N/A   Partly Cloudy
1:53 AM 77.0 °F - 73.0 °F 88% 30.01 in 10.0 mi Calm Calm - N/A   Partly Cloudy
2:53 AM 75.9 °F - 73.0 °F 91% 30.00 in 10.0 mi Calm Calm - N/A   Clear
3:53 AM 75.0 °F - 73.0 °F 94% 30.01 in 10.0 mi Calm Calm - N/A   Clear
4:53 AM 75.0 °F - 73.0 °F 94% 30.00 in 10.0 mi Calm Calm - N/A   Clear
5:53 AM 75.0 °F - 73.0 °F 94% 30.01 in 10.0 mi Calm Calm - N/A   Clear
6:53 AM 73.9 °F - 73.0 °F 97% 30.03 in 10.0 mi NW 3.5 mph - N/A   Clear
7:53 AM 75.9 °F - 73.9 °F 94% 30.04 in 10.0 mi NNW 5.8 mph - N/A   Clear
8:53 AM 79.0 °F - 73.9 °F 84% 30.05 in 10.0 mi North 6.9 mph - N/A   Scattered Clouds
9:53 AM 79.0 °F - 72.0 °F 79% 30.05 in 10.0 mi NW 3.5 mph - N/A   Scattered Clouds
10:53 AM 82.9 °F 87.5 °F 71.1 °F 67% 30.04 in 10.0 mi NE 9.2 mph - N/A   Scattered Clouds
11:53 AM 84.0 °F 89.6 °F 72.0 °F 67% 30.03 in 10.0 mi ENE 10.4 mph - N/A   Clear
12:53 PM 84.0 °F 89.6 °F 72.0 °F 67% 30.02 in 10.0 mi ENE 10.4 mph - N/A   Scattered Clouds
1:53 PM 84.0 °F 88.4 °F 70.0 °F 63% 30.01 in 10.0 mi ENE 10.4 mph - N/A   Scattered Clouds
2:53 PM 82.9 °F 88.0 °F 72.0 °F 69% 30.00 in 10.0 mi ENE 11.5 mph - N/A   Clear
3:53 PM 82.9 °F 88.8 °F 73.0 °F 72% 29.98 in 10.0 mi ENE 12.7 mph - N/A   Clear
4:53 PM 81.0 °F 85.8 °F 73.0 °F 77% 29.98 in 10.0 mi East 11.5 mph - N/A   Partly Cloudy
5:53 PM 82.0 °F 87.9 °F 73.9 °F 76% 29.98 in 10.0 mi NE 10.4 mph - N/A   Mostly Cloudy
6:53 PM 80.1 °F 84.5 °F 73.9 °F 81% 29.98 in 10.0 mi East 5.8 mph - N/A   Mostly Cloudy
7:53 PM 79.0 °F - 73.9 °F 84% 29.98 in 10.0 mi East 6.9 mph - N/A   Partly Cloudy
8:53 PM 79.0 °F - 73.0 °F 82% 30.00 in 10.0 mi Calm Calm - N/A   Partly Cloudy
9:53 PM 79.0 °F - 73.0 °F 82% 30.00 in 10.0 mi Calm Calm - N/A   Scattered Clouds
10:02 PM 78.8 °F - 73.4 °F 83% 30.00 in 10.0 mi Calm Calm - N/A   Mostly Cloudy
10:23 PM 78.8 °F - 73.4 °F 83% 29.99 in 10.0 mi Calm Calm - N/A   Scattered Clouds
10:53 PM 78.1 °F - 73.9 °F 87% 30.00 in 10.0 mi Calm Calm - N/A   Clear
11:53 PM 78.1 °F - 73.9 °F 87% 29.99 in 10.0 mi Calm Calm - N/A   Clear